Weather in Privolye

Russia / Ulyanovsk Oblast     53°34′32″N   47°50′56″E
temp.,
°C
wind,
m/s
gust,
m/s
humid.,
%
clouds,
%
prec.,
mm/h
press.,
hPa
HPBL,
m
23 april, fri
fri2301:00+6sse23905 0.0 102450
04:00+5sse229140 0.0 102518
07:00+6se23885 0.0 102596
10:00+9se33758 0.0 1025396
13:00+12se4462100 0.0 1023897
16:00+14ese3356100 0.1 10221312
19:00+12e3665100 0.1 1020267
22:00+9e2375100 0.1 101953
24 april, sat
sat2401:00+8ese1181100 0.0 101712
04:00+7ssw1187100 0.0 101610
07:00+7sse1389100 0.0 1014114
10:00+10ssw3371100 0.0 1013663
13:00+14ssw335477 0.3 10111559
16:00+13sw565999 1.6 10091209
19:00+11ssw4875100 1.3 1008473
22:00+9ssw41180100 1.9 1007452
25 april, sun
sun2501:00+6wsw61090100 2.8 1007915
04:00+5wsw71178100 3.6 10081113
07:00+4wsw61178100 0.0 10091030
10:00+5wsw9127179 0.2 10101457
13:00+6wsw9126874 0.4 10111558
16:00+4wsw6118381 0.6 10151031
19:00+6wsw6116839 0.2 10151069
22:00+3sw411775 0.2 1017322
26 april, mon
mon2601:00+2sw311791 0.0 1018247
04:00+1sw398060 0.0 1019186
07:00+2ssw397439 0.0 1018247
10:00+8ssw5848100 0.0 10171029
13:00+10ssw5639100 0.0 10161671
16:00+11ssw453881 0.0 10151981
19:00+9s3554100 0.0 1013141
22:00+6s2261100 0.0 101215
27 april, tue
tue2701:00+5ssw116221 0.0 101111
04:00+4ssw22675 0.0 101010
07:00+5sw23685 0.0 100998
10:00+10ssw575120 0.0 10081332
13:00+6wnw687736 0.3 1010646
16:00+10wnw574391 0.3 10102143
19:00+8w355879 0.1 1010384
22:00+6wsw2469100 0.2 101192